This is the latest recevied weather packets stored in our database for station/object DC2MP. If no packets are shown the sender has not sent any weather packets the latest 10 day(s).
| Time | Temp. | Humidity | Pressure | Rain* | Wind** | Luminosity | Snow |
|---|---|---|---|---|---|---|---|
| 1777859343 | 11.67° C | 73% | 1016.4 hPa | 0 mm | - | - | - |
| 1777855743 | 12.22° C | 71% | 1016.4 hPa | 0 mm | - | - | - |
| 1777844943 | 15° C | 55% | 1016.4 hPa | 0 mm | - | - | - |
| 1777841343 | 15.56° C | 53% | 1016 hPa | 0 mm | - | - | - |
| 1777837744 | 16.11° C | 52% | 1015.4 hPa | 0 mm | - | - | - |
| 1777834142 | 18.33° C | 46% | 1014.7 hPa | 0 mm | - | - | - |
| 1777826943 | 21.11° C | 37% | 1014.1 hPa | 0 mm | - | - | - |
| 1777823342 | 21.67° C | 35% | 1013.8 hPa | 0 mm | - | - | - |
| 1777819743 | 22.78° C | 34% | 1013.8 hPa | 0 mm | - | - | - |
| 1777816143 | 22.22° C | 32% | 1014.2 hPa | 0 mm | - | - | - |
| 1777812543 | 22.22° C | 31% | 1014.6 hPa | 0 mm | - | - | - |
| 1777808943 | 22.22° C | 27% | 1014.9 hPa | 0 mm | - | - | - |
| 1777805343 | 21.67° C | 31% | 1015.4 hPa | 0 mm | - | - | - |
| 1777801743 | 21.11° C | 35% | 1015.9 hPa | 0 mm | - | - | - |
| 1777798143 | 20° C | 42% | 1016.5 hPa | 0 mm | - | - | - |
| 1777794543 | 16.67° C | 48% | 1016.7 hPa | 0 mm | - | - | - |
| 1777790944 | 12.78° C | 69% | 1017 hPa | 0 mm | - | - | - |
| 1777787343 | 6.11° C | 85% | 1017.1 hPa | 0 mm | - | - | - |
| 1777783743 | 5.56° C | 87% | 1017.3 hPa | 0 mm | - | - | - |
| 1777780143 | 6.67° C | 84% | 1017.3 hPa | 0 mm | - | - | - |
| 1777776544 | 8.33° C | 83% | 1017.7 hPa | 0 mm | - | - | - |
| 1777772943 | 7.78° C | 83% | 1017.8 hPa | 0 mm | - | - | - |
| 1777769343 | 8.89° C | 80% | 1017.8 hPa | 0 mm | - | - | - |
| 1777765743 | 8.33° C | 80% | 1018.1 hPa | 0 mm | - | - | - |
| 1777762143 | 11.11° C | 71% | 1018.3 hPa | 0 mm | - | - | - |
* Rain latest hour (hover to see other rain measurements)
** Current wind speed in m/s (hover to see current wind gust speed)